[[{"header":{"parameterUnit":"m.s-1","parameterCategory":1,"la1":30.2991,"la2":30.254,"lo1":-89.0895,"lo2":-89.0444,"dy":0.0017,"dx":0.0017,"nx":28,"ny":28,"refTime":"2023-08-12T09:00:00:Z","depth":0,"parameterNumber":2,"parameterNumberName":"U-component_of_WINDS"},"data":[0,0,0,0,0,0,0,0,0,0,0,0,0,0,0,0,0,0,0,0,0,0,0,0,0,0,0,0,0,0,0,0,0,0,0,0,0,0,0,0,0,0,0,0,0,0,0,0,0,0,0,0,0,0,0,0,0,0,2.2745,2.2746,0,2.2875,2.2877,2.2878,2.2905,2.2904,2.2903,2.2902,2.3041,2.3046,2.3051,0,0,0,0,0,0,0,0,0,0,0,0,0,2.2525,2.2528,2.2745,2.2746,2.2748,2.2875,2.2877,2.2879,2.2905,2.2904,2.2902,2.2901,2.304,2.3045,2.3051,0,0,0,0,0,0,0,0,0,0,0,0,0,2.2634,2.253,2.2744,2.2776,2.278,2.2875,2.2877,2.2879,2.2905,2.2903,2.2902,2.2901,2.3038,2.3045,2.3052,2.3126,0,0,2.3073,2.3076,0,0,0,0,0,0,0,0,2.2628,2.2642,2.277,2.2774,2.2779,2.2872,2.2851,2.2962,2.2905,2.2858,2.2902,2.29,2.2987,2.2998,2.3026,2.3132,2.3138,2.3074,2.3078,2.3081,2.3083,0,0,0,0,0,0,0,2.262,2.2637,2.2797,2.2772,2.2777,2.2786,2.28,2.2872,2.293,2.2862,2.2864,2.2879,2.2989,2.3019,2.3029,2.314,2.3074,2.308,2.3084,2.3087,2.3317,2.3318,0,0,0,0,0,0,2.2606,2.263,2.2792,2.28,2.2698,2.2791,2.2807,2.2844,2.2929,2.294,2.288,2.288,2.3008,2.3021,2.3034,2.3128,2.3081,2.3088,2.3092,2.3315,2.3317,2.3319,0,0,0,0,0,0,2.2601,2.262,2.2787,2.2716,2.2738,2.2797,2.2838,2.2847,2.2877,2.2942,2.2953,2.29,2.3007,2.3025,2.3103,2.3133,2.3091,2.3097,2.3312,2.3315,2.3318,2.3315,0,0,0,0,0,0,2.2595,2.2619,2.2646,2.2716,2.2742,2.2851,2.284,2.2851,2.2888,2.2889,2.2964,2.2975,2.3007,2.3092,2.311,2.3142,2.3103,2.331,2.3314,2.3317,2.3313,2.3317,2.3321,0,0,0,0,0,2.2587,2.264,2.2647,2.2666,2.2776,2.2853,2.2868,2.2902,2.2891,2.292,2.2962,2.2972,2.3127,2.31,2.312,2.3155,2.3308,2.3313,2.3317,2.3311,2.3316,2.3321,0,0,0,0,0,0,2.2573,2.265,2.2658,2.2735,2.2787,2.2857,2.2895,2.2907,2.2965,2.2963,2.3005,2.3022,2.3098,2.3135,2.3103,2.3232,2.3217,2.3226,2.3206,2.3212,2.3216,2.3206,2.3109,0,0,0,0,0,2.2579,2.2633,2.2698,2.276,2.2785,2.2835,2.287,2.2892,2.2948,2.2971,2.3019,2.3075,2.3136,2.3176,2.3236,2.3318,2.3336,2.3352,2.3356,2.3359,2.3367,2.3415,2.3423,2.3333,2.3333,2.3333,0,0,2.2592,2.2641,2.2672,2.2759,2.2801,2.2858,2.2854,2.2914,2.2958,2.2981,2.3058,2.3095,2.316,2.3241,2.3279,2.3274,2.3395,2.3365,2.3367,2.3373,2.342,2.3428,2.3436,2.3336,2.3335,2.3335,0,0,2.2645,2.2686,2.2743,2.2786,2.285,2.2883,2.2897,2.2965,2.299,2.3067,2.3086,2.314,2.3244,2.329,2.3328,2.3399,2.3412,2.3418,2.3441,2.3487,2.3494,2.3501,2.3528,2.3537,2.3424,2.3424,2.3424,0,2.2653,2.2738,2.2771,2.2831,2.2869,2.2891,2.2951,2.2991,2.3073,2.31,2.3092,2.3224,2.3269,2.3362,2.338,2.3408,2.3427,2.341,2.349,2.3497,2.3504,2.353,2.354,2.3425,2.3425,2.3425,2.3425,0,2.2746,2.2805,2.2844,2.292,2.2963,2.3022,2.3066,2.3106,2.3125,2.3159,2.3239,2.3294,2.3367,2.339,2.341,2.3487,2.3481,2.3481,2.3467,2.3512,2.3538,2.3548,2.3425,2.3425,2.3425,2.3425,0,0,2.2794,2.2888,2.2902,2.2938,2.301,2.3058,2.3119,2.3188,2.3222,2.3278,2.3332,2.342,2.342,2.3462,2.3487,2.3528,2.3583,2.3523,2.3526,2.3534,2.3674,2.3674,2.3685,2.3591,2.3594,2.3595,2.3669,0,2.2857,2.2965,2.2997,2.3089,2.3145,2.3167,2.3221,2.3273,2.3307,2.3361,2.34,2.3462,2.3457,2.3483,2.3524,2.3567,2.3612,2.3563,2.3645,2.3647,2.3629,2.3698,2.3699,2.3766,2.3679,2.3681,2.3682,0,2.2945,2.3,2.3097,2.3164,2.3189,2.3236,2.3303,2.3353,2.3414,2.3436,2.3483,2.3505,2.3572,2.3554,2.3648,2.3614,2.365,2.3676,2.368,2.369,2.3668,2.3712,2.3788,2.3798,2.3698,2.3697,2.3695,0,2.2972,2.3071,2.3142,2.3172,2.3251,2.3285,2.332,2.3378,2.3418,2.3477,2.3503,2.357,2.3607,2.3659,2.3699,2.3681,2.3791,2.3775,2.3814,2.3813,2.3837,2.3835,2.3921,2.3857,2.3857,2.3857,2.3857,0,2.304,2.3098,2.3156,2.32,2.3267,2.3305,2.3371,2.3408,2.346,2.3513,2.3536,2.3586,2.3635,2.3692,2.3724,2.3799,2.3815,2.3837,2.3845,2.3836,2.3833,2.3861,2.3858,2.386,2.3859,2.3859,2.3858,0,2.3082,2.3122,2.3202,2.327,2.3289,2.3336,2.3395,2.344,2.3475,2.3542,2.356,2.3616,2.3685,2.3729,2.3817,2.3839,2.3921,2.3927,2.39,2.3904,2.394,2.3937,2.4048,2.4065,2.3989,2.3989,2.399,0,2.3123,2.3169,2.3242,2.3278,2.3313,2.3371,2.3412,2.3451,2.3493,2.3565,2.3602,2.3671,2.3729,2.3838,2.3888,2.3956,2.3965,2.3999,2.3975,2.3965,2.3967,2.3965,2.397,2.4003,2.4004,2.4004,2.4005,0,2.3192,2.321,2.3266,2.333,2.3377,2.343,2.3483,2.3512,2.3561,2.3607,2.3676,2.3721,2.381,2.388,2.3952,2.3991,2.4007,2.4012,2.4024,2.4016,2.3999,2.401,2.3912,2.4009,2.4009,2.4009,2.4008,2.4008,2.3237,2.3279,2.3337,2.3399,2.3443,2.3492,2.3537,2.3578,2.3635,2.371,2.373,2.3803,2.3864,2.3963,2.4003,2.4062,2.4058,2.4076,2.4081,2.4086,2.4087,2.3988,2.4075,2.4075,2.4075,2.4075,2.4075,0,2.3308,2.3347,2.3404,2.3476,2.3526,2.3534,2.3594,2.3635,2.3698,2.3753,2.3809,2.389,2.3958,2.4013,2.4083,2.412,2.413,2.4138,2.4136,2.4145,2.4085,2.4068,2.4129,2.4129,2.4129,2.4129,2.4129,2.4129,2.3351,2.3424,2.3448,2.3543,2.3582,2.3652,2.3686,2.3732,2.3775,2.3864,2.392,2.3954,2.401,2.4085,2.4148,2.4163,2.4189,2.4195,2.4212,2.4155,2.4149,2.4144,2.4127,2.42,2.42,2.4267,2.4268,2.4268]},{"header":{"parameterUnit":"m.s-1","parameterCategory":1,"la1":30.2991,"la2":30.254,"lo1":-89.0895,"lo2":-89.0444,"dy":0.0017,"dx":0.0017,"nx":28,"ny":28,"refTime":"2023-08-12T09:00:00:Z","depth":0,"parameterNumber":3,"parameterNumberName":"V-component_of_WINDS"},"data":[0,0,0,0,0,0,0,0,0,0,0,0,0,0,0,0,0,0,0,0,0,0,0,0,0,0,0,0,0,0,0,0,0,0,0,0,0,0,0,0,0,0,0,0,0,0,0,0,0,0,0,0,0,0,0,0,0,0,1.983,1.983,0,1.9831,1.9831,1.9831,1.9825,1.9825,1.9825,1.9825,1.9823,1.9823,1.9823,0,0,0,0,0,0,0,0,0,0,0,0,0,1.9818,1.9819,1.983,1.983,1.983,1.9831,1.9831,1.9831,1.9825,1.9825,1.9825,1.9825,1.9823,1.9823,1.9823,0,0,0,0,0,0,0,0,0,0,0,0,0,1.9822,1.9819,1.983,1.9827,1.9827,1.9831,1.9831,1.9831,1.9825,1.9825,1.9825,1.9825,1.9823,1.9823,1.9823,1.9828,0,0,1.9823,1.9823,0,0,0,0,0,0,0,0,1.9822,1.9822,1.9828,1.9828,1.9827,1.9828,1.9826,1.983,1.9825,1.9826,1.9825,1.9825,1.9824,1.9824,1.9825,1.9828,1.9828,1.9823,1.9823,1.9823,1.9823,0,0,0,0,0,0,0,1.9821,1.9822,1.983,1.9828,1.9828,1.9824,1.9825,1.9827,1.9826,1.9826,1.9825,1.9826,1.9824,1.9825,1.9825,1.9828,1.9823,1.9823,1.9823,1.9823,1.9832,1.9832,0,0,0,0,0,0,1.9822,1.9822,1.983,1.983,1.9824,1.9825,1.9825,1.9828,1.9826,1.9826,1.9826,1.9826,1.9825,1.9825,1.9825,1.9829,1.9823,1.9823,1.9824,1.9832,1.9832,1.9832,0,0,0,0,0,0,1.9822,1.9823,1.983,1.9826,1.9827,1.9825,1.9828,1.9828,1.9829,1.9826,1.9826,1.9827,1.9824,1.9825,1.9827,1.9829,1.9824,1.9824,1.9832,1.9832,1.9832,1.9839,0,0,0,0,0,0,1.9821,1.9823,1.9826,1.9826,1.9827,1.9834,1.9829,1.9828,1.9829,1.9829,1.9827,1.9827,1.9824,1.9827,1.9827,1.9829,1.9824,1.9831,1.9832,1.9832,1.9838,1.9839,1.984,0,0,0,0,0,1.9821,1.9828,1.9827,1.9828,1.9832,1.9834,1.9835,1.9832,1.983,1.9832,1.983,1.9827,1.9829,1.9827,1.9827,1.9829,1.9831,1.9832,1.9832,1.9838,1.9839,1.984,0,0,0,0,0,0,1.9828,1.9828,1.9826,1.9834,1.9834,1.9833,1.9837,1.9834,1.9834,1.9834,1.983,1.983,1.9832,1.9831,1.9829,1.9832,1.9829,1.983,1.9833,1.9834,1.9835,1.9835,1.9824,0,0,0,0,0,1.9831,1.9834,1.9833,1.984,1.984,1.9838,1.9839,1.9837,1.9837,1.9837,1.9835,1.9834,1.9834,1.9834,1.9834,1.9838,1.9836,1.9839,1.984,1.984,1.9841,1.984,1.984,1.9833,1.9833,1.9833,0,0,1.9836,1.9836,1.9839,1.9841,1.9841,1.9843,1.9838,1.9841,1.9842,1.9837,1.9839,1.9837,1.9835,1.9838,1.9839,1.9837,1.9842,1.9841,1.9841,1.9841,1.984,1.9841,1.9841,1.9833,1.9833,1.9833,0,0,1.9846,1.9848,1.9852,1.9852,1.9852,1.985,1.9851,1.985,1.9848,1.985,1.9846,1.9846,1.9847,1.9845,1.9844,1.985,1.9846,1.985,1.9853,1.9853,1.9853,1.9854,1.9854,1.9854,1.985,1.985,1.985,0,1.9852,1.9856,1.9854,1.9857,1.9857,1.9853,1.9856,1.9855,1.9855,1.9854,1.9852,1.9851,1.985,1.985,1.9851,1.9851,1.985,1.985,1.9853,1.9854,1.9854,1.9854,1.9855,1.985,1.985,1.985,1.985,0,1.9862,1.9865,1.9868,1.9868,1.9869,1.9871,1.9868,1.9868,1.9865,1.9863,1.9863,1.9861,1.9859,1.9859,1.9857,1.9859,1.9857,1.9854,1.9851,1.9855,1.9855,1.9856,1.9851,1.9851,1.985,1.985,0,0,1.9879,1.9876,1.9877,1.9875,1.9874,1.9875,1.9876,1.9875,1.9874,1.9873,1.9873,1.9872,1.9869,1.9867,1.9864,1.9864,1.9866,1.9861,1.986,1.986,1.9865,1.9867,1.9867,1.9863,1.9863,1.9863,1.9865,0,1.9887,1.9891,1.9887,1.9891,1.9891,1.9886,1.9886,1.9884,1.9881,1.988,1.9876,1.9875,1.9872,1.9871,1.987,1.9866,1.9867,1.9866,1.9861,1.9861,1.9861,1.9867,1.987,1.9871,1.9865,1.9865,1.9865,0,1.9898,1.9898,1.9901,1.9896,1.9897,1.9898,1.9895,1.9894,1.9891,1.9888,1.9886,1.9882,1.988,1.9877,1.9873,1.9873,1.987,1.9868,1.9867,1.9867,1.9863,1.9865,1.9872,1.9872,1.9865,1.9865,1.9865,0,1.9907,1.9907,1.9909,1.9908,1.9903,1.9904,1.9901,1.9898,1.9896,1.9893,1.9892,1.9888,1.9886,1.9882,1.9877,1.9875,1.9873,1.987,1.9869,1.9869,1.9869,1.9869,1.9874,1.9869,1.9869,1.9869,1.9869,0,1.9917,1.9919,1.9912,1.9913,1.9914,1.9909,1.991,1.9907,1.9903,1.9901,1.9896,1.9894,1.9887,1.9884,1.9879,1.9876,1.9875,1.9872,1.987,1.9872,1.9872,1.987,1.987,1.9869,1.9869,1.9869,1.9869,0,1.9927,1.9924,1.9924,1.992,1.9918,1.9919,1.9914,1.9913,1.9909,1.9907,1.9906,1.99,1.9895,1.9889,1.9883,1.988,1.9876,1.9875,1.9878,1.9877,1.9877,1.9877,1.988,1.988,1.9875,1.9876,1.9876,0,1.9934,1.9935,1.9929,1.9928,1.9926,1.9925,1.9923,1.9918,1.9916,1.991,1.9909,1.9905,1.9901,1.9894,1.9888,1.9882,1.9879,1.9881,1.9879,1.9879,1.9878,1.9878,1.9877,1.9882,1.9882,1.9882,1.9882,0,1.9944,1.9941,1.994,1.9937,1.9935,1.9932,1.9929,1.9927,1.9921,1.9918,1.9914,1.9911,1.9904,1.9899,1.9892,1.9888,1.9883,1.9882,1.9882,1.9883,1.9885,1.9883,1.9879,1.9882,1.9882,1.9882,1.9882,1.9882,1.9951,1.9951,1.9947,1.9944,1.9941,1.9938,1.9936,1.9932,1.9929,1.9923,1.9919,1.9915,1.9908,1.9899,1.9895,1.989,1.9888,1.9887,1.9887,1.9887,1.9887,1.9886,1.9888,1.9888,1.9888,1.9888,1.9888,0,1.996,1.9957,1.9954,1.995,1.9947,1.9943,1.9939,1.9936,1.9933,1.9928,1.9924,1.9917,1.9912,1.9904,1.9897,1.9895,1.9892,1.9893,1.9893,1.9891,1.989,1.989,1.9895,1.9895,1.9895,1.9895,1.9895,1.9895,1.9964,1.9963,1.996,1.9956,1.9952,1.9948,1.9946,1.9942,1.9937,1.9931,1.9926,1.9922,1.9915,1.9907,1.9901,1.9898,1.9896,1.9897,1.9894,1.9892,1.9892,1.9891,1.9892,1.9897,1.9897,1.9896,1.9896,1.9896]}]]